GFSGBSN_850_rhum_270.txt.gz
RH
60 56 56 52 50 48 47 46 47 44 42 41 40 40 39 36 34 32 30 27 24 22 20 18 16 15 13 13 12 12 12 14 14 15 15 18 17 17 11 13 14 13 16 17 14 15 16
44 67 62 54 52 50 48 45 45 46 44 43 44 42 42 39 35 32 30 26 23 20 18 16 15 14 12 12 11 12 12 15 16 21 22 19 19 20 17 15 12 17 14 13 15 17 18
54 54 59 56 55 55 56 51 49 51 46 45 48 47 44 41 36 31 28 22 17 14 12 9 8 7 9 11 10 10 11 16 15 20 24 23 21 21 17 13 20 17 12 13 13 17 19
99 64 48 50 58 61 60 59 55 58 50 50 49 49 44 39 33 27 21 16 14 14 13 11 8 5 10 6 7 8 12 15 15 19 24 24 25 20 19 21 17 15 16 14 15 14 19
100 93 65 62 68 71 67 64 64 59 58 58 53 49 42 35 24 18 32 33 24 25 25 24 20 9 9 6 11 14 17 19 20 19 23 24 26 23 22 13 15 15 14 16 17 18 15
86 98 72 63 61 70 72 63 64 64 67 58 56 46 39 23 17 32 46 37 31 30 31 28 26 23 13 12 21 23 21 23 20 22 23 23 21 17 16 14 12 17 17 17 18 20 21
92 99 77 61 74 74 65 60 57 66 64 62 53 48 34 26 36 52 46 36 38 40 42 38 34 27 20 22 18 25 23 23 24 19 15 23 15 13 18 22 20 21 20 18 17 20 28
92 90 95 97 86 83 69 60 62 57 56 60 53 48 34 30 47 55 49 55 53 63 56 42 35 42 35 30 29 24 22 21 21 17 22 22 14 18 22 22 23 23 21 20 20 27 28
93 94 91 96 99 98 70 60 53 56 48 58 54 50 51 37 53 57 52 58 58 62 59 39 48 46 44 40 29 20 25 21 19 20 20 15 19 21 23 22 24 23 22 22 20 26 27
95 95 94 88 99 96 62 50 53 70 47 60 61 60 58 42 71 59 63 50 58 63 41 24 36 39 41 42 34 28 23 21 22 20 20 16 17 24 23 22 21 24 19 21 21 23 23
100 96 100 93 94 95 100 99 99 96 73 56 71 69 57 47 70 75 66 50 59 53 40 23 34 40 37 30 25 26 25 22 20 21 19 15 22 22 23 21 20 21 20 21 20 21 23
100 100 99 98 94 91 99 96 89 88 93 69 82 69 59 53 77 70 67 58 60 52 50 32 32 34 28 24 29 27 22 23 18 20 19 14 25 22 18 21 21 21 22 22 22 23 30
96 96 99 100 94 85 84 92 88 90 93 80 74 70 66 56 79 75 70 63 71 77 30 28 35 33 22 26 28 26 23 22 21 27 25 17 17 20 24 24 22 20 23 31 34 34 29
98 93 98 95 96 87 80 84 89 84 88 80 89 75 70 66 83 77 78 87 99 49 33 40 37 37 30 30 29 28 26 23 19 15 16 20 27 21 20 21 21 24 24 30 40 34 33
98 92 96 97 100 82 79 83 83 88 84 90 90 95 80 71 99 89 80 99 88 50 28 43 41 39 39 35 33 29 28 23 20 21 25 22 31 26 23 22 22 26 31 24 36 44 39
97 99 100 99 99 86 80 93 94 88 94 100 100 96 84 79 87 99 91 90 75 47 48 45 41 43 42 39 37 31 30 37 34 30 27 30 39 28 29 25 27 26 23 34 32 45 39
96 97 97 100 91 97 77 86 89 89 92 99 100 99 88 71 92 100 95 85 57 52 48 46 50 50 48 46 40 34 35 45 42 37 30 29 33 37 32 31 27 31 31 34 31 40 42
92 100 99 100 100 99 73 82 90 97 100 100 100 95 77 82 98 99 90 63 50 52 57 51 47 49 49 48 47 48 45 47 46 46 33 35 32 41 35 38 36 31 29 30 44 42 46
89 100 100 100 100 100 83 76 89 97 100 98 99 82 100 96 96 96 82 63 50 54 49 49 50 48 50 49 52 50 50 52 46 41 41 37 39 45 45 42 37 36 36 36 40 41 46
88 99 98 100 99 87 99 80 90 99 93 98 94 98 99 100 94 78 81 74 66 55 50 46 53 49 47 47 47 50 51 50 51 43 45 46 41 37 44 38 36 46 43 39 38 59 44
92 96 98 99 99 99 100 88 89 93 100 100 100 96 87 96 98 77 65 67 64 63 51 51 58 46 44 57 50 51 47 50 48 51 44 37 48 46 46 46 44 44 40 44 43 38 51
96 99 99 99 95 96 100 98 95 89 99 100 96 99 96 79 85 78 79 74 62 59 58 58 52 50 42 46 46 52 44 48 45 48 46 44 55 46 99 46 42 44 43 42 40 39 40
99 99 100 100 98 98 98 99 94 99 100 98 98 85 76 87 88 84 83 67 58 56 72 59 69 54 57 45 46 51 53 52 49 46 53 50 56 57 59 51 49 53 46 39 36 34 36
100 99 99 100 94 96 97 100 96 99 100 94 96 86 95 99 83 77 76 63 56 58 69 79 80 67 56 54 61 59 55 53 52 50 48 55 52 62 63 58 83 40 33 33 36 33 29
94 99 99 98 86 83 89 95 100 99 100 95 87 94 90 98 67 74 76 69 64 78 81 75 80 59 52 57 61 65 64 59 54 58 53 49 54 82 79 61 44 40 38 39 38 33 26
85 98 99 99 98 83 97 99 100 100 100 100 91 97 83 80 88 75 74 74 86 81 85 80 67 59 68 66 76 75 69 48 60 70 64 60 59 72 80 77 62 39 32 33 32 41 30
84 96 99 100 99 98 98 98 100 100 99 100 100 82 72 79 81 75 73 82 79 81 87 69 78 73 68 73 82 81 65 43 64 61 73 74 79 93 74 90 58 38 32 38 53 42 34
79 88 99 99 99 100 99 98 96 100 97 100 99 92 80 88 93 87 69 68 69 69 77 73 74 74 76 82 70 76 70 59 50 43 59 63 74 81 70 98 85 36 38 45 35 41 36
80 87 96 89 96 100 99 90 100 100 100 100 98 94 96 73 91 84 76 74 66 60 62 74 58 59 60 62 67 62 76 66 50 62 46 58 43 57 50 54 44 43 35 37 43 34 38

GFSGBSN_850_rhum_273.txt.gz
RH
87 46 64 60 53 52 51 49 47 46 44 41 40 38 37 35 32 31 29 28 25 23 20 18 16 14 11 12 10 12 11 13 17 17 15 14 11 10 8 8 8 9 9 11 11 11 11
99 96 47 64 60 54 48 47 45 46 45 46 41 41 40 37 35 32 29 27 25 22 20 18 16 14 16 11 13 11 11 18 19 17 16 14 12 11 10 9 8 12 8 8 10 10 10
100 100 96 48 64 60 52 46 47 44 44 44 44 43 44 41 36 33 30 27 24 22 19 16 13 9 15 12 13 16 12 19 18 18 15 17 14 12 11 9 11 9 9 9 10 12 13
94 100 100 68 64 64 62 56 51 49 48 49 46 48 49 46 39 34 29 25 23 20 17 15 12 10 14 10 10 11 12 16 18 18 17 19 18 15 13 12 9 9 9 11 12 11 14
83 99 100 99 61 66 67 65 62 61 58 57 50 52 50 47 38 27 21 22 20 19 17 17 21 29 13 9 11 16 16 14 18 19 20 19 19 14 13 11 9 11 11 11 14 12 12
77 83 98 98 82 56 64 58 60 62 60 58 59 54 51 45 30 18 23 19 19 19 21 22 23 25 17 9 18 20 18 15 14 16 18 18 15 13 12 10 9 10 11 12 12 14 14
83 78 93 96 100 69 62 55 70 69 66 66 60 57 56 46 24 34 24 36 34 38 44 26 27 21 16 20 20 17 19 18 17 15 13 16 14 12 9 12 14 11 11 11 12 15 17
77 86 85 98 99 99 65 63 70 80 74 68 66 66 57 43 29 42 37 41 56 67 39 28 29 30 31 32 24 15 19 16 16 16 12 15 12 7 13 15 14 13 13 13 14 16 18
58 82 90 88 100 98 81 69 62 64 72 69 71 66 57 48 35 50 56 57 52 54 41 23 21 26 22 33 28 14 18 15 15 15 13 15 11 11 16 16 16 15 15 14 16 16 15
64 78 90 94 96 100 89 73 68 71 74 71 71 69 61 58 48 59 56 67 45 34 35 18 28 30 33 34 27 23 15 15 14 15 12 14 11 14 16 15 15 16 14 15 16 18 19
68 66 98 97 97 99 99 86 78 80 74 65 69 74 74 58 71 61 67 54 46 59 42 14 20 32 28 26 19 23 21 17 16 16 14 15 13 17 16 15 14 16 16 16 16 18 18
73 79 99 100 98 100 98 98 100 84 72 67 70 83 82 60 70 68 65 48 52 46 45 22 22 27 25 25 20 22 24 21 17 15 15 15 12 13 12 13 15 15 18 17 16 18 25
77 80 98 98 100 100 99 94 100 100 70 76 81 92 83 77 66 57 62 64 49 58 22 24 23 23 24 21 19 21 20 23 22 24 22 18 14 14 16 17 17 19 19 26 28 27 28
81 86 98 100 99 100 100 94 100 93 73 81 82 100 80 67 61 73 67 64 80 37 32 21 24 23 28 19 21 22 22 21 18 17 18 23 24 15 17 17 20 18 17 25 38 32 26
84 95 100 100 93 98 99 98 100 95 92 99 100 99 86 69 61 64 69 98 87 56 30 30 27 31 30 20 26 24 24 21 16 16 21 19 19 12 13 13 13 18 22 17 26 27 34
84 95 98 97 98 97 100 99 89 82 92 100 100 100 99 70 65 84 88 89 77 47 33 26 38 29 33 29 31 26 25 18 18 15 16 21 25 21 20 18 17 22 17 30 28 42 41
98 98 99 99 98 98 96 100 96 81 90 100 100 99 97 83 82 100 95 85 62 45 39 41 36 47 35 32 28 27 25 30 28 23 21 23 32 31 25 24 23 24 25 24 26 26 40
98 99 100 98 98 100 94 99 99 91 92 100 100 98 99 94 96 99 91 73 57 47 43 41 42 35 34 35 34 28 30 34 36 31 27 25 27 39 28 26 26 19 23 24 39 38 33
97 99 99 97 97 97 98 100 98 99 98 100 97 97 100 90 95 95 84 71 55 49 46 41 42 35 34 37 43 40 37 43 41 36 33 29 30 52 46 34 25 27 26 25 26 32 41
88 97 93 95 100 99 100 100 96 99 88 100 100 99 100 100 80 71 83 79 69 49 44 39 37 38 42 44 39 45 46 42 40 37 40 43 33 35 47 38 30 33 33 28 29 49 43
88 94 90 86 100 98 92 100 89 97 93 100 91 91 85 97 96 85 72 70 70 60 48 40 43 37 34 44 40 45 38 44 39 40 40 35 40 35 38 36 32 35 32 30 32 30 42
93 96 94 93 93 99 100 100 96 98 98 100 100 98 93 82 74 84 81 77 66 54 46 47 45 40 34 38 33 39 38 40 40 39 37 36 48 41 99 36 33 35 31 32 32 30 30
97 99 99 99 98 99 100 95 100 94 100 100 100 80 78 76 85 92 87 72 64 54 47 41 40 44 42 32 30 38 40 38 39 41 42 41 46 48 54 40 39 47 37 32 29 26 30
92 98 95 99 99 100 99 100 100 87 97 98 96 82 99 95 90 82 71 62 63 56 58 47 46 50 55 45 52 51 46 42 42 40 39 44 43 50 62 47 76 31 28 27 31 28 25
83 93 95 98 98 99 100 98 98 96 91 100 95 88 86 98 81 72 69 67 60 58 60 64 65 60 58 60 51 58 58 54 47 40 43 38 42 65 64 51 32 28 30 33 35 32 24
79 82 92 100 100 100 96 98 100 100 94 100 97 97 83 93 92 75 72 65 82 92 91 68 83 74 64 57 57 66 68 50 53 57 52 45 49 62 70 59 49 30 28 26 26 38 22
58 76 86 97 100 99 98 91 96 98 100 100 98 94 88 92 82 93 84 76 74 83 88 80 81 84 71 73 75 58 49 35 52 59 69 68 70 90 69 81 52 27 26 30 45 40 27
58 66 86 96 100 100 100 94 100 98 100 100 97 90 88 92 98 86 94 75 72 72 82 85 82 80 82 79 69 59 51 40 40 37 50 56 64 71 64 95 83 31 29 41 33 35 31
61 58 86 91 100 99 99 98 100 100 98 100 100 100 99 94 94 89 92 85 74 63 64 73 62 68 61 62 55 51 51 41 43 52 35 58 44 55 49 50 37 32 32 33 33 34 29

GFSGBSN_850_rhum_279.txt.gz
RH
99 94 70 60 62 60 58 55 53 51 50 46 44 43 39 37 36 34 30 27 26 24 22 20 18 16 12 14 14 15 13 11 10 10 14 13 12 11 12 10 9 8 8 9 8 10 38
96 98 99 75 58 57 63 57 55 52 50 48 46 44 41 38 36 36 33 30 27 25 24 21 20 17 15 18 13 13 13 9 14 15 14 13 14 13 11 12 10 8 9 8 6 8 37
84 92 96 100 89 71 57 59 64 59 52 48 45 43 41 39 36 35 34 30 27 26 24 22 20 18 18 13 10 12 11 10 10 13 15 15 16 15 14 15 9 10 12 10 8 8 32
61 72 83 93 97 97 80 80 62 66 63 55 50 44 40 39 38 36 34 32 27 25 23 22 20 19 26 12 13 11 10 10 12 15 15 16 16 15 15 11 10 12 10 13 11 13 36
48 61 61 73 86 94 95 98 74 64 68 65 59 54 49 44 42 44 38 33 27 25 22 21 19 34 28 18 16 11 8 9 12 12 16 16 16 15 16 19 21 15 16 16 14 12 15
35 33 43 56 65 78 87 97 97 78 69 74 69 62 58 54 51 51 42 35 29 24 26 32 25 30 15 11 13 15 15 16 14 13 14 17 17 21 22 20 23 17 18 17 19 16 49
30 33 33 39 48 60 72 82 97 97 78 72 77 74 66 59 59 58 50 40 31 40 51 34 32 20 16 20 22 19 13 12 15 14 19 15 25 28 21 18 17 14 14 14 18 15 46
30 30 30 32 35 43 57 67 78 94 96 72 78 76 71 66 63 58 49 34 36 53 52 45 45 41 37 26 24 24 16 16 17 22 18 21 23 19 17 17 17 16 16 16 16 15 16
32 26 26 29 30 32 38 53 66 78 92 93 72 80 84 76 74 61 47 30 52 55 55 38 29 26 27 25 22 22 19 16 18 23 22 24 19 13 14 17 17 15 17 19 19 18 17
45 41 36 29 30 30 32 37 51 69 84 99 82 78 90 95 87 60 44 29 52 50 89 41 22 24 24 21 19 18 18 19 18 21 20 20 16 15 15 17 15 19 16 16 15 23 31
40 44 46 43 38 33 28 30 34 51 70 92 100 88 89 100 84 61 41 40 57 52 89 25 21 16 16 21 17 17 16 17 23 19 18 19 16 17 16 17 16 17 17 20 19 20 23
55 48 44 43 44 41 38 33 32 39 53 74 98 100 87 100 95 54 68 64 54 74 88 32 24 21 23 18 17 18 22 19 19 20 17 18 12 14 14 14 14 13 18 20 24 26 37
52 48 45 43 41 41 40 39 35 36 42 59 82 100 98 98 88 48 84 70 87 88 30 26 29 26 27 28 27 26 27 26 28 28 25 20 19 16 14 16 15 17 23 41 44 42 41
52 49 45 44 43 45 44 44 44 40 38 47 71 96 99 99 77 65 84 91 100 56 41 26 23 24 30 26 26 24 26 29 24 26 29 32 33 20 16 18 21 22 29 53 50 48 53
54 51 49 48 49 46 48 54 53 57 55 55 66 86 99 94 86 77 89 98 91 55 35 33 31 35 34 27 28 28 29 25 24 24 32 36 31 18 15 15 16 22 30 25 36 34 64
56 56 56 58 61 61 62 59 61 65 64 69 89 93 98 94 98 95 98 91 75 44 34 39 44 35 43 33 32 34 33 23 22 21 21 29 37 23 20 15 15 20 23 34 41 50 53
59 59 59 62 64 65 68 69 71 70 71 91 100 98 88 87 99 98 95 84 63 43 39 50 52 51 45 47 33 34 34 27 25 22 20 25 38 40 26 22 25 25 27 25 36 47 60
57 58 58 62 64 66 72 80 88 89 86 95 100 97 85 94 97 91 94 75 55 50 47 53 50 54 52 51 48 50 40 36 31 31 23 28 51 58 43 34 19 23 25 28 72 46 61
62 61 60 62 70 72 73 75 83 91 96 99 99 96 91 99 94 96 81 76 56 55 52 51 57 52 46 54 61 57 48 39 36 38 38 33 66 73 66 46 32 28 28 24 37 58 57
64 61 61 67 74 74 81 87 93 94 99 100 99 99 98 99 86 84 88 83 76 60 55 54 54 51 52 58 63 57 60 44 38 37 39 41 63 72 85 66 65 60 35 30 49 78 60
64 62 63 67 72 74 80 93 99 98 100 100 100 96 86 97 95 92 78 75 80 73 63 54 56 53 52 76 76 74 65 67 44 40 40 50 54 66 65 60 64 58 50 46 55 50 63
67 67 68 67 71 79 89 93 89 99 99 100 99 96 92 88 87 87 89 82 75 68 67 72 61 52 48 56 65 84 84 64 55 46 47 47 64 70 82 56 56 52 55 46 48 46 44
56 65 72 72 80 81 88 91 91 98 100 100 97 97 90 90 93 93 86 79 77 64 58 53 57 58 57 50 47 46 47 50 59 55 59 57 66 75 86 64 63 66 52 44 51 49 35
59 55 65 77 79 86 92 99 94 100 99 100 98 100 97 95 92 90 77 73 72 64 60 57 53 61 49 44 41 40 45 51 54 62 48 62 59 75 84 78 100 56 35 31 35 36 28
47 56 55 60 77 82 95 93 88 98 100 100 100 100 100 93 84 90 85 83 74 63 62 57 52 49 49 44 63 67 60 54 58 63 55 58 71 82 86 86 61 45 36 34 33 36 26
41 44 49 60 56 75 80 87 97 96 100 99 100 100 100 95 93 76 86 84 86 80 76 90 70 52 52 82 79 81 87 64 68 60 55 55 63 78 88 82 80 53 35 25 28 50 30
39 36 39 47 59 58 71 83 92 100 99 100 93 98 100 98 80 83 85 88 81 80 78 98 93 86 73 89 96 88 74 51 74 68 74 75 89 98 95 95 76 42 30 23 47 50 34
55 52 44 36 52 60 66 82 94 100 100 100 88 83 100 98 98 93 87 75 80 73 88 98 95 98 96 88 84 86 79 62 55 55 70 76 87 95 89 93 85 41 32 42 46 31 28
52 52 61 48 38 63 64 92 98 100 99 100 96 84 98 100 99 97 89 85 80 70 68 91 75 92 86 91 83 69 71 62 59 80 50 79 71 85 77 78 48 36 34 35 32 31 29

GFSGBSN_850_rhum_285.txt.gz
RH
90 92 95 98 72 64 58 57 54 54 49 48 45 44 44 42 40 37 34 30 27 25 24 22 20 16 12 11 7 12 13 12 10 9 11 14 14 15 17 15 13 10 10 11 29 40 52
88 87 86 88 96 93 72 59 54 53 51 50 46 42 40 38 36 34 33 31 28 26 25 24 21 19 18 16 12 13 15 11 11 10 11 14 16 17 15 16 16 13 12 13 49 52 58
75 80 84 83 82 89 89 85 72 52 50 51 50 44 40 38 34 30 28 27 25 24 24 25 24 21 19 13 11 10 10 10 11 11 11 12 15 16 17 18 14 13 15 13 32 50 62
57 68 70 73 80 82 84 86 84 83 54 50 49 52 46 42 37 34 30 27 25 24 26 30 27 23 20 12 11 11 11 10 12 11 10 14 15 17 18 15 16 19 14 15 12 53 59
37 44 54 62 63 69 78 81 86 85 84 60 47 48 49 47 42 37 34 30 27 27 30 27 31 26 22 16 16 17 14 14 13 11 9 12 17 17 17 24 24 24 22 16 15 45 55
45 36 34 38 47 56 58 65 74 82 87 85 82 54 45 49 48 40 36 30 26 37 42 40 41 36 26 19 17 18 18 16 12 16 15 16 18 25 29 27 23 19 22 19 19 17 56
58 38 35 32 31 31 34 50 56 65 73 80 81 78 67 54 51 48 40 28 43 47 47 49 48 53 38 25 22 20 24 22 16 16 20 20 27 32 26 27 22 23 22 23 20 14 50
78 61 34 30 29 27 28 30 39 47 54 62 74 75 79 74 54 50 46 38 59 75 64 49 49 44 40 34 46 19 22 30 19 22 21 24 32 26 23 25 26 26 27 25 19 33 50
78 79 56 38 30 28 27 27 29 31 36 47 53 69 76 82 78 65 48 50 60 45 67 61 44 51 43 41 46 38 29 26 25 25 24 27 22 20 20 22 25 27 27 24 19 35 77
78 81 80 51 37 33 30 27 26 26 28 31 41 52 70 81 80 71 51 53 52 52 78 56 40 32 37 38 33 28 32 26 26 28 26 29 23 23 24 27 24 28 22 22 20 25 32
75 78 81 81 58 40 38 35 32 30 27 26 30 44 64 80 86 66 56 51 61 54 86 37 33 24 25 28 22 20 30 32 34 27 22 28 20 25 29 24 22 24 21 21 21 31 31
74 72 78 81 78 72 48 40 37 34 31 30 28 32 53 95 99 77 59 61 62 70 85 49 34 27 29 26 23 20 25 27 25 27 28 27 18 18 20 18 19 18 20 23 34 37 43
76 74 65 72 66 54 52 53 47 40 38 35 31 30 35 70 96 88 65 68 89 92 45 45 35 28 29 30 27 22 28 30 32 38 41 30 31 25 21 25 22 20 25 41 41 43 34
68 69 51 51 50 50 49 50 54 55 51 46 40 34 33 37 72 100 98 89 98 61 60 38 35 36 33 32 30 27 25 32 35 31 39 43 46 30 23 25 26 26 30 51 44 48 34
68 60 53 49 52 51 48 46 49 56 62 60 57 48 36 27 44 88 100 98 75 60 52 52 46 48 44 34 31 34 38 33 28 33 41 45 40 24 20 22 21 25 34 27 38 44 65
74 73 60 49 53 53 50 49 50 54 60 72 75 68 47 28 27 58 99 84 76 51 50 45 62 48 50 41 38 39 39 32 31 32 26 37 42 28 23 22 22 24 25 33 53 49 48
65 66 64 54 51 53 52 54 57 60 76 87 80 66 69 37 46 76 95 82 67 53 53 64 56 55 52 43 42 43 39 34 32 28 29 34 40 35 30 33 32 33 32 34 34 54 43
69 64 64 58 53 55 52 54 60 67 81 90 94 92 79 64 98 95 80 72 66 63 55 65 58 64 54 48 54 42 44 35 28 25 34 35 45 47 34 31 28 32 32 30 44 44 71
71 68 64 58 54 57 55 56 63 72 84 90 94 83 97 98 94 90 76 59 62 71 62 68 69 61 57 63 66 64 57 40 31 39 41 40 52 57 53 44 42 45 33 31 44 50 44
73 73 68 60 59 58 58 61 66 76 81 93 89 99 92 87 84 76 73 72 66 53 68 67 69 61 68 62 66 64 66 51 42 41 39 38 60 55 55 48 46 58 58 47 42 67 45
77 78 70 64 65 63 63 66 73 79 82 97 96 95 78 98 92 93 84 72 71 70 48 60 71 71 64 75 63 71 63 63 52 46 45 52 64 69 56 48 60 54 58 58 59 51 58
79 76 72 69 67 66 64 67 74 78 87 100 93 94 100 87 80 86 86 87 91 75 67 58 79 64 67 66 56 55 69 70 58 53 58 63 63 72 75 67 69 69 62 62 59 54 59
82 82 78 75 73 67 66 67 72 80 94 98 98 97 99 82 81 85 80 76 70 72 70 67 55 76 71 71 52 45 49 55 57 57 70 78 85 80 68 69 74 88 73 62 58 56 56
86 87 80 69 67 70 69 70 73 80 89 95 98 99 100 95 96 84 70 67 74 73 82 79 72 61 68 58 52 55 55 55 69 76 67 76 84 88 70 80 90 50 52 49 50 52 52
90 89 80 67 61 60 68 74 79 82 89 99 96 100 99 96 82 73 78 80 74 69 78 84 68 60 60 71 75 71 72 70 62 64 72 83 75 87 97 86 66 59 56 56 60 53 47
98 96 81 64 61 57 53 64 76 79 84 99 99 99 100 97 90 78 76 74 83 83 78 75 68 64 69 82 87 100 96 77 84 75 72 88 90 78 98 98 94 56 45 40 40 63 44
99 94 62 52 48 46 51 53 53 68 78 93 96 93 100 98 94 81 92 84 70 75 91 88 78 86 85 96 92 95 93 66 70 71 92 94 98 94 92 91 79 57 41 35 69 61 36
98 89 58 48 41 38 40 42 48 57 58 79 82 90 98 99 97 93 84 98 88 90 95 79 84 87 93 98 99 99 97 76 76 67 73 81 91 93 96 92 77 49 42 48 46 36 32
95 84 61 52 56 47 37 36 36 44 59 66 87 77 88 100 97 98 93 97 99 97 98 96 94 72 76 91 92 98 98 96 88 96 75 82 69 83 71 69 52 44 34 29 29 28 36

GFSGBSN_850_rhum_291.txt.gz
RH
96 91 90 94 96 96 96 85 73 57 48 45 42 40 38 33 30 26 26 26 25 22 21 20 18 15 11 11 8 10 11 11 10 9 7 9 13 16 16 17 14 11 12 13 27 57 60
88 91 92 90 92 90 92 90 89 87 74 58 48 43 39 35 30 27 25 20 25 22 21 21 20 19 19 17 11 12 12 12 12 10 10 12 15 15 17 18 13 15 15 14 42 56 60
69 78 83 85 88 88 87 86 86 86 84 80 74 55 41 36 33 28 25 20 22 22 22 24 27 31 25 16 12 12 11 10 9 10 12 13 16 15 16 16 16 17 14 15 53 62 58
62 44 60 69 74 77 81 84 83 82 81 81 76 76 69 41 29 27 24 21 20 22 24 26 25 31 31 22 18 18 13 12 11 11 12 11 12 17 18 18 17 18 18 15 27 60 64
81 76 44 43 55 65 68 68 71 75 78 80 79 73 70 73 65 45 24 21 20 24 27 28 33 36 32 21 18 21 21 17 14 13 13 11 14 18 20 20 15 18 13 18 16 48 64
84 87 85 44 35 39 47 53 58 58 57 64 72 74 66 68 65 64 58 38 27 28 34 31 39 34 24 23 24 23 23 23 20 15 16 17 18 23 25 18 13 14 21 23 22 38 54
79 80 79 67 41 33 33 34 36 37 47 51 47 52 66 59 56 56 56 36 31 35 30 31 22 28 21 24 22 24 24 23 22 17 21 23 21 22 21 24 19 24 26 26 22 18 38
66 73 62 57 55 39 32 29 28 27 27 30 40 41 41 48 52 59 60 47 54 66 66 29 29 36 31 37 46 24 25 29 23 21 22 22 26 22 23 24 25 26 26 22 20 30 27
63 76 71 62 56 51 39 32 28 26 25 25 25 27 29 29 35 59 64 58 57 68 80 40 41 44 44 44 45 33 36 32 26 24 24 24 19 24 23 25 27 27 27 24 22 22 49
68 53 71 67 60 57 49 37 31 28 26 25 23 21 22 24 29 50 65 58 62 74 54 39 42 37 39 44 38 26 38 32 29 32 28 27 25 23 22 24 24 28 22 23 24 24 22
74 66 56 71 62 62 55 45 38 34 30 29 25 21 20 26 65 68 61 57 70 56 14 17 35 33 36 35 27 29 38 36 33 29 27 29 24 27 28 26 24 23 22 23 23 25 28
68 65 69 67 72 66 67 56 45 40 38 34 28 26 22 35 70 71 62 57 65 34 26 33 37 31 34 31 26 26 36 34 33 33 29 27 23 20 20 21 23 21 23 24 33 30 30
73 68 66 62 75 66 67 63 49 43 41 37 31 28 26 30 45 76 66 63 69 52 32 25 38 32 31 30 28 25 34 37 30 33 37 32 32 27 22 27 23 23 27 33 32 37 28
76 70 63 66 61 70 52 56 51 48 44 41 34 28 27 22 72 64 80 76 79 48 50 42 44 43 39 32 31 28 32 32 32 30 35 33 33 30 27 26 25 31 28 35 38 31 27
78 77 65 69 67 68 55 53 52 52 48 46 41 34 24 24 79 88 95 94 67 58 50 48 37 40 46 40 36 34 33 31 29 31 31 40 39 28 27 26 24 31 32 26 34 32 38
86 87 75 71 72 74 65 57 57 52 50 51 50 41 28 27 47 76 99 68 67 57 56 53 34 36 46 37 29 33 36 33 32 30 28 32 38 30 24 24 24 24 25 32 42 41 39
85 79 83 75 68 72 73 64 66 56 54 59 68 44 38 30 33 65 90 79 64 57 56 63 63 56 58 53 45 43 38 34 31 33 32 34 38 33 31 30 27 31 30 31 32 42 43
98 91 78 80 79 71 71 67 71 63 65 75 82 80 52 56 66 96 81 67 59 64 54 65 67 69 66 63 63 57 57 37 43 43 48 37 47 50 34 27 26 25 28 29 48 43 53
92 83 88 78 80 74 72 73 68 68 73 95 85 75 91 81 81 86 74 61 53 54 62 69 74 68 69 65 66 64 52 41 36 42 48 46 53 61 51 39 41 35 36 31 36 40 48
91 94 92 73 79 78 73 74 68 71 74 98 80 93 92 96 90 70 58 53 50 41 48 45 50 50 58 68 69 73 66 54 56 56 53 52 60 58 59 47 41 46 43 36 38 50 45
90 95 93 96 69 88 77 79 73 70 72 98 84 88 79 94 92 86 74 72 71 40 51 42 47 48 41 41 40 58 58 54 49 50 57 53 64 58 59 50 41 48 44 39 41 39 48
92 90 82 93 65 82 81 81 74 70 72 100 87 88 92 89 77 98 83 73 65 66 63 54 58 55 59 63 50 57 55 50 52 47 56 64 84 70 69 49 52 55 43 40 38 37 39
99 98 92 96 66 79 82 86 72 71 79 99 94 82 79 82 84 90 77 68 66 68 66 60 59 68 69 60 57 60 63 65 62 65 62 67 84 90 92 65 62 86 65 49 40 38 37
99 100 100 95 58 84 85 83 73 73 84 97 88 82 92 87 85 77 67 67 67 68 73 62 66 70 65 62 65 67 62 63 64 65 64 63 60 81 95 89 97 55 41 42 46 43 38
98 92 69 48 44 79 86 81 74 74 84 99 91 91 93 95 78 74 74 71 67 67 64 70 70 68 69 74 80 68 55 53 43 52 58 62 56 68 95 95 75 56 45 45 43 41 32
95 94 71 35 49 80 86 80 76 74 82 97 98 92 89 94 83 80 80 81 83 77 79 73 64 62 74 77 87 86 73 43 44 38 40 54 51 62 70 94 88 47 38 36 41 59 32
97 81 44 29 58 81 84 80 77 77 79 94 94 92 98 98 88 84 82 81 75 69 78 72 71 66 67 85 84 82 83 54 67 57 52 50 58 74 70 77 65 54 50 44 68 53 39
89 74 30 46 77 85 88 84 75 72 78 96 96 89 95 98 97 92 87 86 87 86 89 73 78 70 77 82 76 72 72 58 63 60 62 58 61 66 72 85 86 36 45 61 44 33 40
84 75 67 76 88 91 94 96 92 66 71 99 100 99 100 100 99 92 91 86 88 84 80 80 73 60 62 81 80 85 94 82 77 91 53 72 56 61 52 54 40 38 40 37 39 40 35